Temp
49 49 49 49 49 48 48 47 47 47 48 49 49 49 49 49 48 47 47 47 47 47 46 46 46 44 42 41 42 43 43 41 40 39 38 38 36 35 34 33 32 32 32 31 31 31 31 31 32 33 33 32 31 30 29 29 29 30 30 31 30 29 29 29 29 28 28 26 27
49 49 48 47 47 48 48 48 47 48 49 50 50 50 50 50 49 48 47 47 48 47 47 46 44 43 42 41 43 43 43 42 40 39 38 36 35 33 32 32 31 31 31 31 31 31 31 31 33 34 34 32 31 31 30 29 29 30 30 30 30 29 29 29 28 27 27 26 26
49 49 49 49 50 50 50 49 49 49 49 50 50 51 51 50 50 49 48 48 47 46 46 46 44 43 42 42 43 43 43 42 40 38 36 35 33 32 31 31 31 30 30 30 30 31 31 31 33 34 35 34 33 32 31 29 29 30 30 30 30 30 30 30 27 27 26 26 25
50 50 50 50 50 51 51 50 50 49 50 50 50 51 51 51 50 49 47 45 45 45 45 45 44 43 43 43 42 42 41 39 38 37 35 33 32 31 30 30 30 30 30 30 30 30 30 31 33 34 34 33 33 32 32 30 29 30 30 29 29 29 29 29 28 27 27 26 25
51 51 51 51 51 51 51 51 50 50 50 50 50 50 50 50 49 47 46 45 45 45 44 44 44 44 43 42 41 40 38 36 35 35 34 32 31 30 30 30 30 29 29 29 30 30 31 32 33 34 33 32 33 32 30 29 29 29 29 29 28 28 28 28 28 27 27 26 25
51 51 52 51 51 51 51 51 50 50 50 50 49 49 48 47 47 46 46 46 45 43 42 43 43 43 42 41 40 38 36 34 33 33 33 32 31 30 30 30 29 29 28 29 29 30 31 32 34 33 33 32 31 29 28 28 29 29 28 28 28 28 27 27 27 26 26 25 23
53 53 52 52 51 51 51 51 50 50 49 49 48 47 46 46 45 45 45 45 44 43 43 43 43 42 41 40 38 37 35 33 32 32 32 32 31 30 30 29 29 28 28 28 29 30 31 32 34 34 33 33 32 29 27 27 28 28 28 28 28 27 25 24 25 25 24 22 22
54 53 53 53 52 52 51 50 49 49 48 48 48 46 45 45 45 45 45 45 45 44 44 43 42 42 41 40 38 36 35 33 32 32 31 31 30 30 29 29 28 28 28 27 28 29 30 31 33 33 32 32 32 29 26 25 27 27 27 26 26 25 23 22 22 22 23 22 23
53 53 52 52 51 51 50 49 48 47 47 47 47 46 46 46 45 45 45 45 45 44 43 42 41 40 40 39 38 36 36 35 33 32 31 31 31 30 29 29 28 28 27 26 27 28 29 30 32 32 31 32 31 28 26 25 26 26 26 25 24 23 22 20 20 20 21 21 23
52 51 50 50 49 48 48 47 46 46 45 46 46 46 46 45 46 46 46 46 44 43 42 41 40 39 39 38 38 37 36 35 34 32 31 31 31 31 30 29 29 28 27 26 26 27 28 29 29 28 28 28 27 26 25 25 26 26 26 25 24 22 21 20 19 19 20 21 23
50 50 49 49 47 46 46 45 45 45 45 46 46 46 46 46 46 47 46 45 43 42 41 41 40 40 39 39 38 37 36 35 34 33 32 32 31 31 30 29 29 28 27 26 26 26 27 28 28 27 27 26 25 25 25 25 25 25 24 23 22 22 22 21 19 19 19 20 21
48 47 47 46 46 45 45 45 45 45 45 45 46 46 47 47 47 46 45 43 43 42 41 40 41 41 40 40 38 37 35 34 34 33 32 32 31 30 29 29 28 28 27 26 26 27 27 28 27 27 26 25 24 24 25 25 25 25 24 22 21 21 22 22 20 18 18 18 20
46 45 45 44 44 44 45 45 46 46 46 46 46 47 47 47 46 45 44 43 43 42 41 40 41 41 41 40 39 37 35 34 33 33 33 31 30 29 29 28 28 28 27 26 26 27 27 28 27 27 26 25 24 24 24 25 25 25 24 22 21 22 22 22 20 18 18 18 20
44 44 43 43 43 44 45 45 45 46 46 46 47 47 47 46 44 44 44 44 43 42 41 40 40 41 41 41 39 37 35 34 33 32 32 31 30 29 29 28 28 27 27 26 26 27 27 28 27 27 27 26 25 24 24 24 25 25 25 23 23 23 23 22 20 19 19 20 21
43 43 42 43 43 44 44 44 45 45 46 46 47 47 46 45 44 43 44 44 43 42 41 40 40 40 40 40 39 37 35 33 33 32 31 30 29 29 29 28 27 27 27 26 26 26 27 28 28 28 28 28 27 25 24 24 24 25 25 25 24 24 23 22 20 19 20 21 20
43 42 43 43 44 44 45 45 45 46 46 46 46 46 45 45 43 43 43 44 43 42 41 41 40 39 38 38 37 36 34 33 32 32 32 31 30 29 29 28 28 27 27 26 26 26 27 27 27 28 29 29 28 26 25 24 24 24 24 24 24 24 23 22 20 20 20 20 20
43 43 44 44 45 45 46 46 46 46 46 45 44 45 45 45 44 43 43 43 43 42 41 40 40 39 37 36 35 34 34 33 33 33 33 32 31 30 29 29 29 28 27 27 27 26 26 26 26 27 28 28 28 27 26 25 24 24 24 23 23 23 23 22 21 20 20 20 20
44 44 45 45 46 46 46 47 47 46 45 45 44 44 44 44 44 43 43 42 42 42 41 40 39 38 37 36 34 34 34 34 34 34 34 34 33 32 31 30 29 28 27 28 28 27 27 26 26 26 26 27 27 26 26 25 24 24 23 23 22 22 21 21 20 19 19 19 20
45 45 45 46 47 47 47 47 47 47 46 45 45 44 44 44 44 44 43 42 42 42 41 40 38 38 37 36 35 34 34 35 35 35 34 34 33 32 32 31 29 28 28 28 29 29 28 28 27 26 26 26 26 25 24 24 23 23 22 22 22 21 20 19 18 18 18 19 19
45 46 46 47 48 48 48 48 48 48 47 46 45 44 44 44 44 44 43 42 41 41 41 41 39 38 37 36 35 34 34 34 35 35 34 33 32 32 32 31 30 29 28 29 29 29 28 28 28 27 26 26 26 25 24 23 22 22 21 21 21 20 19 18 17 17 17 17 18
47 47 47 48 49 49 49 48 48 48 48 47 45 44 44 43 43 44 44 43 42 41 41 41 40 39 37 36 36 35 35 34 35 35 34 32 32 32 32 31 30 29 29 29 29 29 28 28 28 27 27 27 26 25 24 22 21 21 20 19 19 18 17 17 16 16 16 16 17
47 48 48 48 49 50 49 48 48 48 47 46 45 44 44 43 44 44 44 43 42 41 41 41 40 40 39 38 38 37 36 34 34 33 33 32 32 31 31 30 30 30 30 29 29 28 28 28 27 27 27 26 26 25 24 23 22 21 20 19 18 17 16 16 15 15 16 16 16
48 48 48 48 49 49 49 48 48 47 47 46 45 44 43 43 44 44 43 43 42 42 41 41 40 40 40 40 40 39 37 35 33 32 32 31 31 31 30 30 31 31 31 30 29 28 27 27 26 26 26 26 25 24 24 24 23 22 21 20 18 17 16 15 15 15 15 16 17
48 48 48 49 49 49 49 49 48 47 46 45 44 44 44 44 44 44 43 43 42 42 42 41 40 40 40 40 40 39 38 35 34 33 31 30 30 30 30 30 31 32 32 31 31 30 30 28 26 25 25 25 25 24 24 23 23 23 22 21 20 19 17 16 15 16 16 16 17
48 48 49 49 49 49 49 48 48 47 46 45 45 44 44 44 44 44 43 43 42 41 40 40 40 40 40 40 38 37 36 36 35 34 33 31 30 30 29 29 30 31 32 31 34 35 34 32 30 28 26 25 24 23 23 22 22 22 23 22 21 20 19 18 18 18 18 17 17
48 49 49 49 49 48 48 48 48 47 47 46 45 44 44 45 45 44 43 41 40 39 39 40 40 40 39 38 36 35 35 35 35 35 34 33 32 31 30 30 30 31 31 33 35 36 37 36 35 31 28 25 24 23 23 21 21 21 22 22 21 21 21 21 21 20 20 19 17
48 49 49 49 49 48 47 47 48 47 47 45 45 45 45 45 44 43 41 39 39 39 40 41 41 40 38 37 35 34 34 34 34 34 35 35 34 33 32 31 31 31 33 35 36 37 37 38 37 35 30 26 25 25 25 23 21 20 20 20 20 21 22 23 23 23 21 19 17
48 49 48 48 48 48 48 48 47 47 46 46 45 46 45 44 42 40 39 39 40 40 41 41 40 38 36 35 34 34 34 34 34 34 34 34 34 34 33 33 32 32 34 36 37 38 38 38 38 37 34 28 26 25 25 24 22 20 19 19 20 21 22 23 22 21 20 18 17
48 48 48 48 48 48 48 47 47 47 46 46 46 45 44 41 40 39 40 41 41 42 42 42 39 37 35 34 34 34 34 34 34 34 33 33 33 33 33 32 32 33 35 37 38 38 38 39 39 38 36 33 29 27 26 25 24 22 20 20 21 21 22 22 20 18 18 17 17
48 48 47 47 48 47 47 47 47 46 46 45 44 43 41 40 40 40 41 42 43 43 42 41 38 36 35 35 35 35 35 35 34 33 33 32 33 33 33 33 33 34 35 37 38 38 39 39 39 38 37 35 30 26 25 24 23 23 23 23 22 22 21 19 18 17 17 16 16
48 48 48 48 47 47 47 47 46 45 44 43 42 41 40 40 41 42 43 44 44 43 41 39 37 36 35 35 35 35 35 35 34 33 33 33 33 34 34 33 32 33 35 37 38 38 39 39 39 38 37 36 31 27 25 23 24 24 24 25 24 22 20 18 18 17 17 16 16
48 48 48 48 47 47 47 46 45 43 42 41 41 40 41 41 42 43 44 44 43 42 40 37 36 36 35 35 34 34 35 35 34 34 34 34 34 34 34 34 32 32 34 37 38 38 39 39 39 38 37 36 32 27 24 23 23 24 25 26 24 22 20 19 18 18 17 17 17
48 48 48 48 47 47 45 44 43 41 41 41 41 41 42 43 43 44 44 43 42 41 40 38 37 36 36 36 35 35 35 35 35 35 35 35 35 34 33 33 32 32 34 36 37 38 38 39 39 38 37 37 32 27 23 23 24 24 25 25 22 20 19 18 19 19 18 18 17
48 48 48 48 47 45 44 42 41 40 40 41 41 42 43 44 44 44 44 42 41 40 39 38 37 37 37 37 37 36 36 37 36 35 34 34 33 33 32 32 33 34 36 36 37 37 38 38 38 38 37 37 31 26 23 23 24 25 25 24 22 20 19 19 19 19 18 18 17
47 47 47 47 45 44 42 41 40 40 41 41 42 43 43 44 44 44 43 41 39 38 37 36 36 36 36 36 36 36 36 36 36 35 34 33 32 31 31 31 32 34 36 37 37 37 38 38 38 38 37 35 29 25 23 24 26 26 26 24 23 21 19 18 18 18 17 17 16
47 46 45 45 44 42 41 41 41 41 42 42 42 43 43 44 43 43 41 39 38 37 37 36 36 36 36 36 35 36 36 36 36 35 34 32 31 31 31 31 30 32 35 36 37 37 37 38 38 38 37 34 27 24 24 26 27 26 25 24 24 22 21 19 19 18 17 16 15
47 46 44 43 42 42 42 42 42 42 43 42 43 43 43 43 42 41 39 38 38 37 36 36 36 36 36 36 36 36 36 36 36 35 33 31 30 30 31 31 31 32 33 36 36 37 37 38 38 37 36 31 26 24 25 26 27 26 24 24 24 23 22 20 19 18 17 16 16
47 45 44 43 43 43 43 42 43 43 43 43 43 43 42 41 40 39 37 37 38 37 36 36 36 36 36 36 36 35 35 34 34 33 32 31 31 31 31 32 31 31 32 35 36 37 37 38 38 37 35 30 27 26 26 26 26 25 25 25 25 24 22 19 17 17 16 16 18
46 45 45 44 44 44 44 44 44 43 43 43 43 41 40 40 39 37 36 35 36 37 36 36 36 36 36 36 35 35 34 33 32 32 32 33 33 33 32 32 31 31 32 34 36 36 37 38 38 37 36 31 28 27 27 26 25 24 24 24 24 24 22 19 17 16 16 16 22
45 46 46 45 45 45 45 45 45 44 44 43 42 41 39 39 37 36 35 33 34 35 35 36 36 35 35 34 33 33 33 32 31 31 31 32 33 33 34 31 31 31 31 34 35 36 37 38 38 38 36 32 29 28 27 26 24 24 23 23 24 24 23 20 17 16 15 15 20
46 46 46 46 46 46 46 46 45 44 43 42 42 40 38 36 35 34 33 31 32 33 34 35 35 34 33 32 31 31 31 32 31 30 30 30 30 32 33 31 30 29 30 32 35 36 37 38 38 38 37 33 29 27 27 24 24 25 25 25 25 25 24 22 19 17 16 15 16
MSLP
1021.09 1021.29 1021.53 1021.73 1022.01 1022.21 1022.45 1022.73 1022.93 1023.09 1023.25 1023.41 1023.57 1023.73 1023.85 1023.93 1024.05 1024.17 1024.37 1024.53 1024.61 1024.77 1024.85 1024.89 1024.93 1025.01 1025.13 1025.21 1025.25 1025.29 1025.33 1025.41 1025.53 1025.69 1025.89 1026.17 1026.37 1026.53 1026.61 1026.77 1026.85 1026.93 1027.05 1027.17 1027.29 1027.33 1027.41 1027.41 1027.45 1027.53 1027.61 1027.73 1027.85 1028.01 1028.13 1028.29 1028.33 1028.41 1028.45 1028.57 1028.65 1028.73 1028.81 1028.85 1028.93 1029.01 1029.13 1029.21 1029.25
1021.01 1021.21 1021.41 1021.69 1021.93 1022.13 1022.41 1022.65 1022.81 1022.93 1023.01 1023.09 1023.13 1023.21 1023.29 1023.33 1023.45 1023.65 1023.89 1024.13 1024.25 1024.37 1024.53 1024.73 1024.81 1024.93 1025.09 1025.13 1025.13 1025.21 1025.29 1025.45 1025.57 1025.77 1026.01 1026.21 1026.41 1026.57 1026.69 1026.81 1026.85 1026.97 1027.09 1027.17 1027.29 1027.33 1027.41 1027.41 1027.45 1027.53 1027.65 1027.77 1027.89 1028.05 1028.21 1028.33 1028.37 1028.41 1028.53 1028.61 1028.69 1028.73 1028.81 1028.89 1028.97 1029.01 1029.13 1029.21 1029.29
1020.93 1021.13 1021.37 1021.57 1021.81 1022.01 1022.21 1022.41 1022.57 1022.69 1022.77 1022.77 1022.77 1022.77 1022.77 1022.73 1022.77 1023.01 1023.37 1023.69 1023.93 1024.13 1024.33 1024.57 1024.77 1024.89 1025.01 1025.13 1025.21 1025.29 1025.33 1025.41 1025.61 1025.85 1026.05 1026.29 1026.45 1026.61 1026.73 1026.81 1026.89 1027.01 1027.13 1027.21 1027.29 1027.37 1027.41 1027.41 1027.45 1027.53 1027.69 1027.81 1027.93 1028.05 1028.25 1028.37 1028.41 1028.45 1028.57 1028.69 1028.73 1028.73 1028.81 1028.93 1029.01 1029.05 1029.13 1029.17 1029.29
1020.77 1020.97 1021.17 1021.33 1021.45 1021.61 1021.81 1022.01 1022.17 1022.33 1022.45 1022.49 1022.53 1022.57 1022.49 1022.41 1022.45 1022.73 1023.13 1023.53 1023.81 1024.01 1024.25 1024.45 1024.73 1024.85 1025.01 1025.13 1025.29 1025.37 1025.41 1025.53 1025.69 1025.89 1026.13 1026.37 1026.53 1026.65 1026.73 1026.81 1026.93 1027.01 1027.13 1027.21 1027.29 1027.41 1027.41 1027.45 1027.49 1027.57 1027.65 1027.81 1027.93 1028.09 1028.25 1028.37 1028.41 1028.49 1028.57 1028.65 1028.69 1028.77 1028.85 1028.93 1029.01 1029.05 1029.09 1029.13 1029.21
1020.61 1020.73 1020.85 1021.01 1021.09 1021.21 1021.37 1021.53 1021.73 1021.97 1022.13 1022.21 1022.41 1022.49 1022.53 1022.45 1022.53 1022.77 1023.13 1023.49 1023.73 1023.97 1024.13 1024.37 1024.61 1024.85 1025.05 1025.17 1025.33 1025.45 1025.57 1025.65 1025.77 1025.97 1026.17 1026.41 1026.57 1026.65 1026.73 1026.85 1026.93 1027.01 1027.13 1027.21 1027.29 1027.37 1027.45 1027.49 1027.53 1027.61 1027.73 1027.85 1027.97 1028.09 1028.21 1028.29 1028.41 1028.57 1028.65 1028.69 1028.73 1028.81 1028.85 1028.97 1029.01 1029.01 1029.09 1029.13 1029.21
1020.41 1020.49 1020.57 1020.73 1020.89 1021.01 1021.13 1021.29 1021.45 1021.65 1021.85 1022.05 1022.25 1022.41 1022.49 1022.57 1022.65 1022.85 1023.13 1023.41 1023.65 1023.89 1024.13 1024.41 1024.65 1024.89 1025.13 1025.29 1025.41 1025.53 1025.65 1025.77 1025.89 1026.05 1026.25 1026.41 1026.57 1026.69 1026.77 1026.85 1026.97 1027.05 1027.13 1027.21 1027.29 1027.37 1027.41 1027.49 1027.57 1027.73 1027.81 1027.89 1028.01 1028.13 1028.29 1028.33 1028.41 1028.57 1028.69 1028.77 1028.85 1028.85 1028.89 1028.97 1029.01 1029.01 1029.09 1029.13 1029.21
1020.13 1020.33 1020.49 1020.65 1020.77 1020.89 1021.01 1021.21 1021.41 1021.57 1021.73 1021.93 1022.09 1022.25 1022.37 1022.49 1022.69 1022.85 1023.09 1023.29 1023.61 1023.97 1024.25 1024.45 1024.73 1024.93 1025.13 1025.33 1025.49 1025.61 1025.73 1025.85 1026.01 1026.13 1026.29 1026.41 1026.57 1026.69 1026.77 1026.85 1026.97 1027.05 1027.13 1027.21 1027.29 1027.37 1027.41 1027.45 1027.57 1027.73 1027.85 1027.93 1028.05 1028.25 1028.37 1028.41 1028.41 1028.57 1028.73 1028.85 1028.85 1028.85 1028.93 1029.01 1029.01 1029.01 1029.09 1029.13 1029.17
1020.01 1020.13 1020.33 1020.53 1020.65 1020.81 1020.93 1021.13 1021.33 1021.57 1021.73 1021.85 1022.01 1022.09 1022.21 1022.41 1022.61 1022.85 1023.13 1023.33 1023.61 1023.89 1024.17 1024.41 1024.65 1024.85 1025.09 1025.29 1025.49 1025.65 1025.77 1025.93 1026.09 1026.21 1026.29 1026.41 1026.57 1026.69 1026.77 1026.85 1026.97 1027.05 1027.13 1027.21 1027.29 1027.33 1027.41 1027.45 1027.53 1027.69 1027.85 1027.97 1028.09 1028.25 1028.37 1028.41 1028.45 1028.57 1028.73 1028.85 1028.89 1028.93 1028.97 1029.01 1029.01 1029.05 1029.05 1029.13 1029.13
1019.97 1020.13 1020.29 1020.41 1020.57 1020.73 1020.85 1021.05 1021.29 1021.49 1021.69 1021.85 1021.97 1022.05 1022.17 1022.41 1022.61 1022.85 1023.13 1023.37 1023.57 1023.85 1024.13 1024.37 1024.61 1024.85 1025.05 1025.25 1025.45 1025.57 1025.73 1025.89 1026.05 1026.21 1026.33 1026.41 1026.53 1026.65 1026.77 1026.85 1026.93 1027.05 1027.13 1027.21 1027.29 1027.37 1027.41 1027.45 1027.53 1027.65 1027.77 1027.89 1028.05 1028.25 1028.37 1028.41 1028.49 1028.57 1028.73 1028.85 1028.89 1028.93 1028.97 1029.01 1029.01 1029.05 1029.05 1029.05 1029.05
1019.85 1020.05 1020.29 1020.45 1020.61 1020.73 1020.89 1021.13 1021.29 1021.45 1021.69 1021.85 1022.05 1022.17 1022.29 1022.49 1022.69 1022.85 1023.09 1023.33 1023.57 1023.85 1024.09 1024.33 1024.57 1024.85 1025.09 1025.29 1025.41 1025.57 1025.69 1025.85 1025.97 1026.13 1026.29 1026.37 1026.45 1026.57 1026.73 1026.85 1026.89 1027.01 1027.13 1027.25 1027.29 1027.33 1027.41 1027.49 1027.61 1027.73 1027.81 1027.89 1028.01 1028.17 1028.33 1028.41 1028.45 1028.57 1028.73 1028.77 1028.85 1028.93 1028.97 1029.01 1029.01 1029.01 1029.01 1029.01 1029.01
1019.69 1019.97 1020.17 1020.41 1020.61 1020.85 1021.01 1021.29 1021.45 1021.65 1021.81 1022.01 1022.17 1022.33 1022.49 1022.65 1022.81 1022.97 1023.13 1023.37 1023.69 1023.89 1024.09 1024.29 1024.53 1024.81 1025.05 1025.25 1025.33 1025.45 1025.61 1025.73 1025.85 1026.01 1026.17 1026.29 1026.41 1026.53 1026.65 1026.73 1026.85 1026.93 1027.05 1027.17 1027.25 1027.29 1027.41 1027.49 1027.65 1027.81 1027.93 1028.01 1028.05 1028.13 1028.29 1028.41 1028.41 1028.53 1028.65 1028.77 1028.85 1028.93 1028.97 1029.01 1029.01 1029.01 1028.97 1028.97 1028.93
1019.69 1020.01 1020.21 1020.41 1020.69 1020.93 1021.13 1021.37 1021.57 1021.81 1022.01 1022.13 1022.33 1022.53 1022.69 1022.85 1023.01 1023.17 1023.41 1023.65 1023.81 1023.97 1024.13 1024.25 1024.41 1024.69 1024.89 1025.13 1025.29 1025.41 1025.53 1025.69 1025.81 1025.93 1026.09 1026.25 1026.37 1026.45 1026.57 1026.69 1026.77 1026.85 1026.97 1027.09 1027.17 1027.25 1027.37 1027.49 1027.61 1027.77 1027.93 1028.05 1028.13 1028.13 1028.25 1028.33 1028.41 1028.53 1028.65 1028.73 1028.85 1028.85 1028.89 1028.85 1028.89 1028.93 1028.93 1028.93 1028.89
1019.77 1020.09 1020.37 1020.57 1020.81 1021.01 1021.21 1021.41 1021.61 1021.85 1022.05 1022.25 1022.41 1022.57 1022.77 1022.97 1023.13 1023.37 1023.57 1023.81 1023.93 1024.05 1024.17 1024.29 1024.41 1024.57 1024.77 1025.01 1025.13 1025.33 1025.49 1025.61 1025.73 1025.85 1026.01 1026.13 1026.29 1026.41 1026.57 1026.65 1026.73 1026.81 1026.89 1027.01 1027.13 1027.17 1027.29 1027.41 1027.57 1027.73 1027.85 1028.01 1028.09 1028.13 1028.17 1028.25 1028.33 1028.41 1028.57 1028.73 1028.77 1028.81 1028.77 1028.77 1028.81 1028.85 1028.89 1028.93 1028.89
1019.85 1020.13 1020.41 1020.61 1020.85 1021.01 1021.21 1021.41 1021.61 1021.81 1022.01 1022.21 1022.41 1022.57 1022.77 1023.01 1023.25 1023.41 1023.61 1023.85 1024.01 1024.13 1024.29 1024.41 1024.49 1024.57 1024.61 1024.81 1025.01 1025.21 1025.37 1025.53 1025.69 1025.81 1025.97 1026.13 1026.25 1026.37 1026.49 1026.61 1026.69 1026.77 1026.85 1027.01 1027.05 1027.09 1027.13 1027.29 1027.41 1027.57 1027.73 1027.85 1028.01 1028.05 1028.09 1028.13 1028.17 1028.25 1028.37 1028.53 1028.61 1028.61 1028.61 1028.61 1028.69 1028.77 1028.85 1028.85 1028.85
1019.89 1020.13 1020.29 1020.49 1020.69 1020.85 1021.05 1021.29 1021.45 1021.65 1021.85 1022.09 1022.25 1022.41 1022.69 1022.97 1023.17 1023.37 1023.57 1023.81 1023.97 1024.13 1024.29 1024.45 1024.57 1024.57 1024.57 1024.65 1024.85 1025.05 1025.29 1025.45 1025.61 1025.77 1025.93 1026.09 1026.21 1026.29 1026.41 1026.53 1026.61 1026.69 1026.77 1026.89 1026.97 1027.01 1027.05 1027.13 1027.25 1027.37 1027.49 1027.65 1027.77 1027.85 1027.97 1028.01 1028.05 1028.05 1028.13 1028.21 1028.29 1028.33 1028.41 1028.45 1028.57 1028.65 1028.73 1028.77 1028.85
1019.85 1020.01 1020.21 1020.33 1020.49 1020.65 1020.85 1021.01 1021.21 1021.41 1021.61 1021.85 1022.05 1022.29 1022.49 1022.73 1022.97 1023.21 1023.41 1023.69 1023.89 1024.13 1024.29 1024.41 1024.57 1024.61 1024.65 1024.69 1024.81 1024.97 1025.17 1025.41 1025.57 1025.73 1025.89 1026.01 1026.13 1026.25 1026.29 1026.37 1026.49 1026.57 1026.65 1026.73 1026.85 1026.93 1026.93 1026.97 1027.01 1027.13 1027.25 1027.37 1027.53 1027.65 1027.77 1027.85 1027.93 1027.97 1027.97 1028.01 1028.01 1028.13 1028.21 1028.29 1028.41 1028.53 1028.57 1028.61 1028.73
1019.73 1019.93 1020.09 1020.17 1020.33 1020.49 1020.65 1020.81 1021.01 1021.17 1021.37 1021.57 1021.81 1022.01 1022.25 1022.45 1022.73 1022.93 1023.13 1023.37 1023.69 1024.01 1024.25 1024.37 1024.45 1024.57 1024.69 1024.77 1024.85 1025.01 1025.13 1025.33 1025.49 1025.65 1025.77 1025.89 1026.01 1026.09 1026.13 1026.21 1026.29 1026.33 1026.45 1026.57 1026.73 1026.77 1026.85 1026.85 1026.89 1026.97 1027.05 1027.13 1027.29 1027.41 1027.53 1027.65 1027.73 1027.81 1027.85 1027.85 1027.93 1027.97 1028.01 1028.09 1028.25 1028.33 1028.41 1028.53 1028.57
1019.69 1019.85 1020.01 1020.13 1020.25 1020.41 1020.53 1020.69 1020.85 1021.01 1021.21 1021.41 1021.61 1021.85 1022.05 1022.25 1022.49 1022.69 1022.85 1023.09 1023.37 1023.69 1024.01 1024.25 1024.37 1024.45 1024.57 1024.73 1024.89 1025.01 1025.09 1025.21 1025.37 1025.49 1025.57 1025.61 1025.73 1025.85 1025.93 1026.01 1026.05 1026.13 1026.29 1026.37 1026.45 1026.57 1026.69 1026.77 1026.85 1026.89 1026.97 1027.01 1027.13 1027.21 1027.29 1027.41 1027.57 1027.61 1027.69 1027.73 1027.81 1027.85 1027.89 1028.01 1028.09 1028.17 1028.29 1028.41 1028.41
1019.57 1019.69 1019.85 1019.97 1020.09 1020.25 1020.41 1020.61 1020.77 1020.93 1021.13 1021.29 1021.53 1021.77 1022.01 1022.17 1022.37 1022.57 1022.81 1023.01 1023.21 1023.45 1023.77 1024.05 1024.29 1024.41 1024.45 1024.57 1024.77 1024.89 1024.97 1025.05 1025.17 1025.29 1025.33 1025.37 1025.49 1025.57 1025.73 1025.81 1025.93 1026.01 1026.13 1026.21 1026.29 1026.33 1026.41 1026.53 1026.65 1026.77 1026.85 1026.93 1027.01 1027.13 1027.21 1027.29 1027.41 1027.49 1027.57 1027.61 1027.73 1027.77 1027.85 1027.89 1028.01 1028.09 1028.13 1028.21 1028.29
1019.25 1019.41 1019.57 1019.69 1019.85 1020.09 1020.33 1020.61 1020.85 1021.01 1021.21 1021.37 1021.57 1021.81 1022.05 1022.21 1022.37 1022.57 1022.73 1022.93 1023.09 1023.29 1023.57 1023.85 1024.09 1024.29 1024.37 1024.49 1024.65 1024.77 1024.85 1024.89 1024.97 1025.09 1025.17 1025.25 1025.37 1025.45 1025.57 1025.65 1025.77 1025.89 1025.97 1026.05 1026.09 1026.17 1026.25 1026.33 1026.49 1026.61 1026.73 1026.85 1026.93 1027.05 1027.13 1027.25 1027.33 1027.41 1027.49 1027.57 1027.61 1027.69 1027.73 1027.85 1027.89 1028.01 1028.05 1028.13 1028.13
1019.01 1019.21 1019.41 1019.57 1019.73 1019.93 1020.13 1020.41 1020.81 1021.13 1021.41 1021.53 1021.69 1021.85 1022.01 1022.21 1022.37 1022.49 1022.57 1022.73 1023.01 1023.21 1023.41 1023.61 1023.85 1024.09 1024.25 1024.41 1024.57 1024.65 1024.73 1024.73 1024.81 1024.89 1025.01 1025.13 1025.25 1025.29 1025.37 1025.49 1025.61 1025.73 1025.85 1025.93 1026.01 1026.05 1026.13 1026.21 1026.33 1026.41 1026.57 1026.69 1026.77 1026.89 1027.01 1027.13 1027.29 1027.37 1027.41 1027.49 1027.57 1027.65 1027.73 1027.77 1027.85 1027.93 1028.01 1028.01 1028.01
1018.89 1019.13 1019.37 1019.57 1019.69 1019.81 1019.97 1020.13 1020.45 1020.85 1021.21 1021.45 1021.57 1021.73 1021.93 1022.13 1022.25 1022.33 1022.41 1022.57 1022.85 1023.13 1023.29 1023.41 1023.65 1023.85 1024.01 1024.17 1024.33 1024.41 1024.49 1024.61 1024.73 1024.85 1024.93 1025.05 1025.09 1025.17 1025.25 1025.37 1025.49 1025.61 1025.73 1025.81 1025.85 1025.93 1026.01 1026.09 1026.17 1026.29 1026.41 1026.53 1026.61 1026.73 1026.85 1026.97 1027.13 1027.25 1027.33 1027.41 1027.53 1027.61 1027.69 1027.73 1027.77 1027.85 1027.89 1027.93 1027.93
1018.89 1019.13 1019.33 1019.57 1019.69 1019.81 1019.93 1020.01 1020.21 1020.53 1020.85 1021.17 1021.41 1021.61 1021.81 1022.01 1022.13 1022.21 1022.33 1022.53 1022.73 1022.93 1023.13 1023.29 1023.45 1023.61 1023.77 1023.89 1024.01 1024.13 1024.33 1024.53 1024.65 1024.73 1024.85 1025.01 1025.05 1025.13 1025.21 1025.29 1025.41 1025.49 1025.57 1025.61 1025.73 1025.81 1025.89 1026.01 1026.09 1026.13 1026.25 1026.33 1026.45 1026.57 1026.69 1026.77 1026.93 1027.09 1027.25 1027.33 1027.45 1027.53 1027.61 1027.69 1027.73 1027.73 1027.77 1027.81 1027.81
1019.01 1019.13 1019.29 1019.41 1019.61 1019.81 1020.01 1020.13 1020.29 1020.49 1020.73 1020.97 1021.21 1021.45 1021.69 1021.89 1022.01 1022.13 1022.29 1022.49 1022.65 1022.85 1023.01 1023.21 1023.37 1023.53 1023.61 1023.69 1023.81 1023.93 1024.13 1024.37 1024.53 1024.65 1024.73 1024.85 1024.93 1025.05 1025.13 1025.21 1025.29 1025.29 1025.29 1025.33 1025.45 1025.57 1025.69 1025.81 1025.93 1026.05 1026.13 1026.17 1026.29 1026.41 1026.53 1026.65 1026.77 1026.89 1027.01 1027.17 1027.29 1027.41 1027.49 1027.57 1027.61 1027.65 1027.69 1027.73 1027.73
1019.01 1019.09 1019.17 1019.33 1019.49 1019.73 1019.97 1020.17 1020.37 1020.49 1020.65 1020.81 1021.01 1021.25 1021.53 1021.73 1021.93 1022.09 1022.25 1022.41 1022.57 1022.77 1022.93 1023.13 1023.29 1023.37 1023.49 1023.57 1023.73 1023.85 1024.01 1024.13 1024.29 1024.41 1024.57 1024.73 1024.77 1024.85 1024.97 1025.05 1025.09 1025.09 1025.13 1025.17 1025.17 1025.21 1025.29 1025.45 1025.61 1025.77 1025.89 1026.01 1026.13 1026.25 1026.37 1026.53 1026.61 1026.69 1026.81 1026.97 1027.09 1027.25 1027.37 1027.41 1027.49 1027.53 1027.53 1027.57 1027.57
1018.93 1019.01 1019.09 1019.21 1019.37 1019.57 1019.85 1020.09 1020.25 1020.41 1020.53 1020.65 1020.85 1021.09 1021.33 1021.57 1021.81 1022.01 1022.17 1022.37 1022.57 1022.73 1022.85 1023.01 1023.13 1023.25 1023.37 1023.53 1023.69 1023.85 1023.93 1024.01 1024.13 1024.21 1024.33 1024.49 1024.61 1024.73 1024.81 1024.85 1024.89 1024.93 1024.97 1024.97 1024.97 1025.01 1025.05 1025.13 1025.25 1025.41 1025.61 1025.81 1025.97 1026.13 1026.29 1026.41 1026.49 1026.53 1026.57 1026.73 1026.85 1027.01 1027.21 1027.33 1027.37 1027.37 1027.37 1027.41 1027.41
1018.85 1018.97 1019.05 1019.13 1019.29 1019.49 1019.69 1019.85 1020.05 1020.29 1020.45 1020.61 1020.77 1020.97 1021.17 1021.41 1021.65 1021.85 1022.13 1022.33 1022.53 1022.65 1022.81 1022.93 1023.01 1023.13 1023.29 1023.49 1023.65 1023.81 1023.93 1023.97 1024.01 1024.13 1024.17 1024.29 1024.37 1024.45 1024.57 1024.61 1024.65 1024.73 1024.73 1024.69 1024.73 1024.77 1024.85 1024.89 1024.97 1025.13 1025.33 1025.57 1025.77 1025.93 1026.13 1026.29 1026.41 1026.41 1026.45 1026.57 1026.73 1026.85 1027.01 1027.13 1027.17 1027.21 1027.21 1027.29 1027.33
1018.65 1018.85 1019.01 1019.13 1019.29 1019.41 1019.57 1019.69 1019.97 1020.17 1020.41 1020.57 1020.69 1020.85 1021.09 1021.29 1021.57 1021.85 1022.05 1022.25 1022.41 1022.57 1022.73 1022.85 1022.93 1023.09 1023.29 1023.49 1023.65 1023.73 1023.81 1023.85 1023.97 1024.01 1024.09 1024.13 1024.17 1024.21 1024.29 1024.33 1024.41 1024.41 1024.37 1024.41 1024.45 1024.57 1024.61 1024.65 1024.73 1024.89 1025.09 1025.33 1025.49 1025.65 1025.77 1026.01 1026.17 1026.29 1026.41 1026.49 1026.61 1026.73 1026.81 1026.85 1026.97 1027.05 1027.13 1027.25 1027.25
1018.41 1018.65 1018.85 1019.05 1019.17 1019.29 1019.45 1019.65 1019.85 1020.05 1020.25 1020.41 1020.57 1020.81 1021.05 1021.29 1021.57 1021.77 1021.97 1022.13 1022.29 1022.49 1022.65 1022.73 1022.89 1023.13 1023.33 1023.49 1023.57 1023.65 1023.69 1023.77 1023.85 1023.89 1024.01 1024.13 1024.13 1024.13 1024.13 1024.13 1024.13 1024.13 1024.13 1024.13 1024.17 1024.29 1024.37 1024.41 1024.53 1024.61 1024.77 1025.01 1025.21 1025.41 1025.57 1025.73 1025.85 1026.05 1026.25 1026.33 1026.45 1026.57 1026.65 1026.73 1026.85 1026.97 1027.05 1027.13 1027.17
1018.17 1018.45 1018.69 1018.85 1019.01 1019.17 1019.33 1019.49 1019.65 1019.85 1020.09 1020.29 1020.53 1020.77 1021.05 1021.29 1021.53 1021.69 1021.85 1022.05 1022.21 1022.33 1022.45 1022.61 1022.85 1023.13 1023.29 1023.37 1023.41 1023.57 1023.65 1023.69 1023.69 1023.81 1023.93 1024.05 1024.05 1024.05 1024.01 1023.93 1023.93 1023.89 1023.89 1023.89 1023.97 1024.01 1024.13 1024.21 1024.29 1024.41 1024.49 1024.73 1024.97 1025.17 1025.33 1025.49 1025.69 1025.85 1026.01 1026.13 1026.29 1026.37 1026.45 1026.57 1026.73 1026.85 1026.89 1027.01 1027.05
1018.09 1018.29 1018.49 1018.69 1018.85 1019.01 1019.13 1019.29 1019.49 1019.69 1020.01 1020.25 1020.45 1020.73 1020.97 1021.21 1021.41 1021.57 1021.69 1021.89 1022.01 1022.17 1022.33 1022.57 1022.81 1023.01 1023.13 1023.21 1023.33 1023.41 1023.49 1023.53 1023.61 1023.69 1023.85 1023.85 1023.85 1023.85 1023.77 1023.73 1023.73 1023.69 1023.69 1023.69 1023.77 1023.85 1023.89 1024.01 1024.09 1024.13 1024.29 1024.45 1024.73 1024.97 1025.13 1025.29 1025.45 1025.61 1025.73 1025.85 1026.01 1026.13 1026.25 1026.41 1026.53 1026.61 1026.73 1026.85 1026.93
1018.01 1018.13 1018.33 1018.57 1018.73 1018.85 1019.01 1019.21 1019.41 1019.65 1019.85 1020.13 1020.37 1020.61 1020.85 1021.01 1021.21 1021.33 1021.49 1021.69 1021.85 1022.09 1022.33 1022.57 1022.77 1022.93 1023.05 1023.13 1023.25 1023.29 1023.33 1023.41 1023.49 1023.53 1023.57 1023.57 1023.61 1023.57 1023.57 1023.57 1023.57 1023.57 1023.49 1023.45 1023.57 1023.65 1023.69 1023.73 1023.85 1024.01 1024.09 1024.21 1024.53 1024.77 1024.93 1025.09 1025.25 1025.33 1025.41 1025.57 1025.73 1025.85 1026.01 1026.13 1026.29 1026.37 1026.49 1026.61 1026.69
1017.89 1018.05 1018.21 1018.41 1018.57 1018.77 1018.97 1019.17 1019.37 1019.57 1019.85 1020.09 1020.33 1020.53 1020.73 1020.85 1021.09 1021.25 1021.41 1021.57 1021.73 1022.01 1022.25 1022.41 1022.57 1022.73 1022.85 1023.01 1023.09 1023.13 1023.13 1023.21 1023.25 1023.29 1023.33 1023.37 1023.37 1023.37 1023.41 1023.41 1023.41 1023.33 1023.33 1023.29 1023.37 1023.45 1023.53 1023.57 1023.65 1023.77 1023.93 1024.05 1024.29 1024.61 1024.85 1024.97 1025.05 1025.17 1025.29 1025.33 1025.45 1025.57 1025.73 1025.85 1025.93 1026.09 1026.21 1026.29 1026.41
1017.77 1017.97 1018.13 1018.29 1018.49 1018.73 1019.01 1019.21 1019.41 1019.65 1019.89 1020.13 1020.33 1020.49 1020.61 1020.81 1021.01 1021.21 1021.33 1021.49 1021.69 1021.85 1022.01 1022.17 1022.29 1022.41 1022.57 1022.65 1022.77 1022.85 1022.93 1022.97 1023.01 1023.05 1023.13 1023.21 1023.25 1023.29 1023.33 1023.29 1023.21 1023.13 1023.09 1023.13 1023.21 1023.29 1023.33 1023.41 1023.49 1023.61 1023.73 1023.93 1024.21 1024.49 1024.73 1024.85 1024.93 1025.01 1025.13 1025.21 1025.29 1025.41 1025.53 1025.61 1025.69 1025.77 1025.89 1026.01 1026.13
1017.69 1017.89 1018.09 1018.29 1018.53 1018.77 1019.01 1019.29 1019.49 1019.69 1019.97 1020.13 1020.33 1020.45 1020.57 1020.73 1020.89 1021.05 1021.21 1021.41 1021.57 1021.77 1021.89 1022.01 1022.13 1022.25 1022.33 1022.41 1022.57 1022.65 1022.73 1022.77 1022.81 1022.85 1022.93 1023.01 1023.13 1023.25 1023.29 1023.17 1023.01 1022.93 1022.89 1023.01 1023.05 1023.13 1023.17 1023.25 1023.33 1023.41 1023.57 1023.85 1024.17 1024.41 1024.61 1024.73 1024.81 1024.85 1024.97 1025.09 1025.21 1025.29 1025.41 1025.45 1025.49 1025.57 1025.69 1025.81 1025.89
1017.57 1017.81 1018.05 1018.29 1018.57 1018.81 1019.05 1019.29 1019.49 1019.73 1019.97 1020.13 1020.29 1020.41 1020.57 1020.69 1020.81 1020.93 1021.13 1021.37 1021.57 1021.77 1021.89 1022.01 1022.13 1022.25 1022.29 1022.37 1022.41 1022.49 1022.57 1022.57 1022.65 1022.69 1022.73 1022.85 1023.01 1023.09 1023.13 1023.01 1022.89 1022.81 1022.81 1022.85 1022.89 1022.97 1023.01 1023.09 1023.17 1023.29 1023.49 1023.77 1024.13 1024.37 1024.49 1024.57 1024.61 1024.73 1024.81 1024.93 1025.01 1025.09 1025.13 1025.25 1025.33 1025.41 1025.53 1025.65 1025.73
1017.53 1017.77 1018.01 1018.29 1018.57 1018.81 1019.01 1019.25 1019.45 1019.69 1019.85 1020.05 1020.21 1020.33 1020.49 1020.69 1020.85 1021.01 1021.17 1021.37 1021.57 1021.77 1021.89 1022.01 1022.09 1022.13 1022.21 1022.29 1022.29 1022.33 1022.33 1022.37 1022.45 1022.57 1022.61 1022.73 1022.85 1022.93 1022.97 1022.93 1022.81 1022.73 1022.69 1022.73 1022.77 1022.85 1022.85 1022.89 1023.01 1023.17 1023.41 1023.69 1023.97 1024.17 1024.33 1024.41 1024.45 1024.57 1024.73 1024.81 1024.81 1024.85 1024.89 1025.01 1025.13 1025.25 1025.37 1025.45 1025.57
1017.53 1017.73 1018.01 1018.29 1018.57 1018.77 1019.01 1019.21 1019.41 1019.61 1019.81 1019.97 1020.13 1020.29 1020.49 1020.69 1020.89 1021.09 1021.25 1021.37 1021.57 1021.73 1021.85 1021.97 1022.01 1022.05 1022.09 1022.13 1022.17 1022.21 1022.21 1022.25 1022.33 1022.41 1022.53 1022.57 1022.65 1022.73 1022.77 1022.77 1022.65 1022.57 1022.49 1022.53 1022.57 1022.65 1022.69 1022.73 1022.85 1023.01 1023.21 1023.49 1023.77 1024.01 1024.13 1024.29 1024.37 1024.45 1024.57 1024.57 1024.57 1024.61 1024.73 1024.85 1024.97 1025.09 1025.21 1025.29 1025.29
1017.53 1017.73 1018.01 1018.25 1018.49 1018.73 1018.93 1019.13 1019.33 1019.49 1019.69 1019.89 1020.13 1020.29 1020.53 1020.73 1020.89 1021.01 1021.13 1021.29 1021.41 1021.57 1021.73 1021.85 1021.93 1021.89 1021.93 1022.01 1022.09 1022.13 1022.17 1022.13 1022.17 1022.29 1022.33 1022.37 1022.37 1022.41 1022.49 1022.57 1022.45 1022.33 1022.29 1022.29 1022.41 1022.45 1022.53 1022.57 1022.69 1022.81 1023.01 1023.25 1023.49 1023.69 1023.89 1024.05 1024.21 1024.29 1024.37 1024.41 1024.45 1024.53 1024.57 1024.73 1024.85 1024.97 1025.05 1025.09 1025.01
1017.57 1017.73 1017.97 1018.17 1018.41 1018.61 1018.81 1019.01 1019.21 1019.41 1019.57 1019.81 1020.09 1020.29 1020.49 1020.65 1020.81 1020.97 1021.09 1021.25 1021.29 1021.41 1021.57 1021.69 1021.73 1021.77 1021.85 1021.93 1022.05 1022.09 1022.09 1022.05 1022.05 1022.13 1022.13 1022.13 1022.13 1022.17 1022.25 1022.33 1022.29 1022.17 1022.13 1022.13 1022.17 1022.29 1022.33 1022.41 1022.49 1022.61 1022.81 1023.05 1023.29 1023.45 1023.65 1023.85 1024.05 1024.17 1024.25 1024.29 1024.41 1024.45 1024.49 1024.53 1024.69 1024.81 1024.93 1024.97 1024.89
1017.57 1017.77 1017.97 1018.13 1018.29 1018.49 1018.73 1018.93 1019.13 1019.33 1019.57 1019.73 1020.01 1020.21 1020.41 1020.57 1020.77 1020.97 1021.13 1021.25 1021.29 1021.37 1021.45 1021.57 1021.65 1021.69 1021.81 1021.93 1022.01 1022.05 1022.05 1022.01 1021.97 1021.93 1021.97 1022.01 1022.05 1022.05 1022.09 1022.13 1022.13 1022.05 1022.01 1021.97 1022.01 1022.09 1022.13 1022.21 1022.29 1022.41 1022.57 1022.85 1023.13 1023.29 1023.49 1023.73 1023.97 1024.09 1024.13 1024.13 1024.21 1024.29 1024.29 1024.37 1024.49 1024.61 1024.73 1024.73 1024.77
Wind_Speed
8 7 7 6 6 6 6 5 6 6 7 7 8 8 7 8 7 6 6 5 5 5 5 5 5 5 5 6 7 7 6 6 6 7 6 6 5 4 3 3 3 3 4 3 3 3 3 3 3 3 2 2 3 3 2 2 2 3 3 4 3 3 4 5 4 4 3 3 2
9 8 8 7 7 6 6 6 6 6 7 7 8 9 9 8 8 8 7 6 6 5 5 4 5 5 6 6 6 6 7 7 7 7 6 5 4 3 3 3 3 3 3 4 3 3 3 3 3 3 3 2 3 3 2 1 2 3 4 4 3 3 3 4 4 4 3 3 2
9 9 9 9 8 8 7 7 8 8 9 8 8 8 8 7 7 7 7 6 6 5 5 5 5 5 6 6 5 5 6 7 7 7 6 5 4 3 3 3 3 3 3 3 3 3 3 3 3 3 3 3 4 3 3 1 2 3 4 4 3 3 3 3 3 3 3 2 2
10 11 10 11 12 12 11 9 10 11 10 8 8 7 6 5 5 6 6 6 6 6 5 5 5 5 5 5 5 5 5 6 7 7 6 5 4 3 3 3 3 3 3 3 3 3 3 3 3 3 4 4 5 4 3 2 2 2 2 2 2 2 3 3 3 2 2 2 2
11 11 11 12 13 13 12 11 12 11 10 8 6 5 4 4 4 5 6 6 6 6 6 6 5 5 5 5 6 6 5 6 6 6 6 5 4 3 3 3 3 3 3 3 3 3 3 3 3 3 3 4 4 4 4 3 3 3 2 1 1 2 2 3 2 2 2 2 1
11 11 11 11 12 12 10 10 12 11 9 7 6 6 5 4 5 6 6 7 6 6 6 6 6 5 5 5 6 6 6 5 5 6 6 5 4 3 3 3 3 3 3 3 3 3 4 4 3 3 3 3 3 3 3 3 4 4 3 2 1 1 2 2 2 2 2 2 1
12 12 12 11 12 11 10 10 10 9 8 7 7 8 7 7 7 7 8 7 7 7 6 6 6 6 6 6 5 5 5 5 5 5 6 6 4 4 3 3 3 3 3 3 3 3 3 4 4 4 3 3 3 3 2 2 4 4 4 3 1 1 1 2 1 2 2 3 2
12 12 12 11 11 11 11 11 9 8 7 6 7 8 9 9 9 9 8 8 7 6 6 5 6 7 7 6 6 6 6 6 5 5 5 6 5 4 3 3 3 3 2 3 3 4 3 3 4 4 4 4 3 3 3 3 4 5 5 4 2 1 1 1 1 1 2 3 3
10 10 10 10 10 10 10 10 9 8 7 6 7 8 9 10 10 10 9 8 7 7 6 6 7 7 7 7 7 7 6 7 6 6 5 5 5 5 4 3 3 3 2 2 3 4 4 3 3 3 4 4 4 4 3 3 4 5 5 4 2 1 0 0 1 1 2 3 3
10 10 9 9 8 8 9 8 7 7 6 6 7 8 8 9 10 9 8 7 7 7 7 6 7 7 7 7 7 7 7 6 6 6 6 5 5 5 4 4 4 3 3 2 3 3 4 3 3 3 3 3 4 4 4 4 5 5 5 3 3 2 1 1 1 1 2 2 3
11 10 9 8 8 8 7 7 6 5 5 6 7 7 8 8 8 8 7 7 7 7 7 7 8 8 8 7 7 7 6 6 6 6 6 6 5 5 5 4 5 4 4 3 3 3 4 4 4 3 3 3 4 5 5 4 5 5 5 3 3 3 3 2 2 2 2 2 2
10 9 8 7 8 8 7 7 6 5 6 7 7 7 7 7 7 7 7 7 7 8 7 7 8 8 8 7 7 6 6 6 6 7 6 6 5 5 5 4 5 5 5 5 4 4 4 4 5 5 5 4 3 4 5 5 6 6 5 4 3 3 3 3 3 2 2 2 2
9 8 7 7 8 8 7 7 6 6 6 7 7 7 7 6 7 7 7 8 8 7 6 6 7 7 8 7 7 7 6 6 7 7 6 6 5 5 4 4 4 5 5 5 5 5 5 5 6 7 7 5 4 4 5 6 6 7 6 5 4 4 4 4 3 3 2 2 2
8 8 8 8 9 8 8 7 6 6 7 8 7 7 7 6 6 7 7 8 7 7 6 6 5 6 7 8 8 7 7 6 7 7 7 6 5 5 5 4 5 5 5 5 5 5 6 6 7 8 8 8 7 6 6 6 7 7 7 7 6 5 5 4 4 3 3 2 2
9 9 9 10 9 9 8 8 7 7 8 8 8 7 7 7 7 7 7 8 7 7 6 6 5 5 6 8 8 8 8 7 7 7 7 6 5 5 5 5 5 5 5 5 5 5 6 7 8 8 8 9 8 8 7 6 7 7 7 8 7 6 5 4 4 4 4 3 2
10 10 10 10 10 9 9 8 7 8 8 8 8 8 8 8 7 7 8 8 7 6 6 6 6 5 5 6 8 8 8 7 7 7 7 6 6 6 6 6 6 6 6 6 6 5 5 6 7 8 8 9 9 8 8 7 7 7 7 7 7 6 5 5 5 5 5 4 3
10 10 10 11 11 10 10 9 8 8 9 9 9 9 9 8 8 8 8 9 8 7 7 7 6 6 5 5 6 6 7 7 7 7 7 7 7 7 7 7 7 7 7 7 7 6 6 5 6 7 8 8 8 9 9 8 7 7 7 6 6 5 5 5 6 6 5 5 4
11 11 11 11 12 11 11 10 10 10 10 10 10 9 9 9 9 8 8 9 9 9 9 8 7 6 6 7 6 6 6 7 7 7 8 8 8 8 8 8 7 7 7 8 8 8 7 7 6 6 6 7 7 7 8 8 7 7 7 6 5 5 5 5 6 6 6 5 5
12 12 12 12 12 12 12 11 11 11 10 10 10 9 9 9 9 9 8 8 9 10 10 9 7 7 7 8 7 6 6 7 8 8 8 8 8 8 8 8 7 7 7 7 8 8 8 7 7 7 6 6 5 6 6 7 6 6 6 6 5 5 4 4 5 5 5 5 5
13 13 13 13 13 13 12 11 11 10 9 9 9 9 9 9 9 9 9 9 9 9 10 10 8 8 7 7 8 7 7 6 8 8 8 7 7 8 8 7 7 7 7 7 7 7 7 7 7 7 7 7 6 6 6 6 5 5 5 5 5 4 4 4 4 5 5 5 5
13 13 13 13 13 13 12 12 11 10 9 9 9 10 10 9 9 10 10 10 9 9 9 10 10 9 8 8 8 8 7 6 7 7 7 7 7 7 7 7 7 6 6 6 6 6 7 7 7 7 7 7 7 7 7 6 6 5 5 4 4 3 3 3 4 4 4 5 5
12 12 12 12 12 12 12 12 12 11 10 10 10 10 10 10 10 10 10 9 9 9 9 9 10 10 10 9 9 9 8 6 6 6 6 6 6 6 6 5 6 6 6 6 6 6 6 6 7 7 7 7 8 8 7 7 7 6 5 4 4 3 3 3 3 4 5 5 5
11 11 11 11 11 11 11 11 11 11 11 11 10 10 10 10 10 9 9 8 8 8 8 8 8 9 10 10 10 9 8 7 6 5 5 4 4 4 4 4 5 6 6 6 6 6 6 6 6 7 7 7 8 8 8 8 7 7 6 5 4 3 3 3 3 4 4 5 5
11 11 11 10 10 10 10 10 10 11 11 11 11 10 10 10 10 9 8 8 8 8 8 7 7 8 9 9 9 9 8 8 7 6 6 5 4 4 4 4 5 6 6 6 6 7 7 6 6 6 7 7 7 7 7 7 7 7 7 7 5 4 3 3 3 4 4 5 5
11 11 11 11 11 10 10 10 10 11 11 11 11 11 11 10 10 9 9 8 8 8 8 7 7 7 7 7 7 7 7 8 8 8 7 6 5 5 5 5 5 5 5 5 8 9 10 8 7 7 6 6 6 6 6 6 7 8 8 7 7 5 4 3 3 4 5 5 5
12 12 12 11 11 11 11 11 12 12 11 11 11 11 11 11 10 9 9 8 8 7 7 8 7 7 7 6 6 6 6 7 7 8 8 8 7 6 6 5 5 5 5 6 9 11 12 11 10 8 7 6 6 6 6 6 7 7 7 7 7 6 5 4 4 4 4 4 4
12 11 11 11 11 11 12 12 12 11 11 11 11 11 11 11 9 9 8 8 7 7 7 7 7 6 6 5 6 6 6 6 6 7 8 8 8 8 7 6 6 5 6 8 11 12 13 13 12 11 9 7 7 7 7 6 6 6 7 7 6 6 6 5 5 4 3 3 3
12 12 11 11 11 12 12 12 11 11 11 11 11 11 10 10 9 8 8 7 7 6 6 6 6 5 4 4 5 6 7 6 6 6 7 7 8 8 8 7 6 7 8 10 12 12 13 14 13 13 12 9 7 7 7 7 7 6 6 6 6 6 6 6 5 4 3 3 3
13 12 11 12 12 12 12 12 12 11 11 11 11 10 9 9 9 8 8 8 7 7 7 5 4 3 3 4 5 6 6 6 6 6 6 6 7 7 8 8 7 8 10 12 12 13 13 14 14 14 14 12 8 6 6 7 6 6 5 5 5 5 6 5 5 4 4 4 3
13 13 12 13 13 12 12 12 12 11 10 10 10 9 9 9 9 9 9 9 9 8 7 5 4 4 5 6 6 6 6 6 6 6 6 7 7 8 8 8 8 9 10 12 12 13 13 14 14 14 14 14 10 7 6 6 6 6 6 5 5 6 6 6 5 5 5 4 4
13 13 13 13 13 13 12 12 11 11 10 9 9 9 9 9 9 9 9 9 8 7 5 4 5 5 5 5 5 5 5 5 5 5 6 8 9 9 9 9 9 9 10 12 12 13 13 14 14 15 15 15 10 7 6 6 7 7 6 6 7 7 7 6 6 6 6 6 5
13 13 13 13 13 13 12 11 10 10 10 10 10 10 10 10 9 9 9 8 7 6 5 5 5 5 5 4 4 5 5 5 5 6 7 8 9 9 9 9 9 9 10 12 12 13 13 14 14 15 15 15 11 8 7 7 7 7 7 7 8 8 8 7 6 7 8 7 7
12 13 13 13 12 11 10 10 9 9 9 10 10 10 10 10 8 8 8 7 6 6 6 6 6 6 6 5 5 5 5 6 7 7 8 8 9 9 9 8 8 9 10 11 12 12 13 14 14 15 15 15 11 8 7 7 6 6 6 6 7 8 8 8 7 8 8 8 8
12 12 12 12 11 10 9 9 9 9 9 9 9 10 10 9 9 8 7 6 5 5 5 5 6 6 6 5 5 5 5 6 6 7 8 8 8 8 8 8 7 8 10 11 11 12 13 14 14 15 15 15 10 8 7 7 6 6 6 6 6 6 7 8 8 8 8 8 7
12 12 11 11 10 9 9 9 9 9 9 9 9 9 9 9 9 8 7 5 4 4 4 4 4 4 4 3 4 4 5 6 7 7 8 8 7 7 8 8 8 9 10 10 11 12 13 14 15 15 14 12 8 7 7 7 7 7 7 7 7 7 7 7 7 7 7 7 7
12 11 10 10 9 9 9 10 9 10 10 10 10 9 9 8 7 6 5 5 4 3 3 3 2 2 2 3 3 4 5 7 8 8 8 7 6 6 7 9 8 9 10 10 11 12 13 14 15 15 13 10 7 6 6 7 6 7 7 7 7 8 8 7 7 7 6 6 6
11 11 10 10 10 10 10 10 10 10 10 10 10 9 8 7 6 4 4 4 3 3 3 2 2 2 3 4 4 5 6 6 7 7 7 6 6 6 7 8 8 9 10 11 12 13 14 15 15 14 13 9 6 6 6 6 5 6 6 7 8 8 8 7 6 6 6 6 7
10 10 10 10 10 10 10 10 11 11 11 10 8 7 6 6 5 4 3 4 4 3 3 2 2 3 4 4 5 6 6 6 6 6 7 7 7 7 8 9 9 9 10 11 12 13 14 15 15 15 13 8 7 7 6 6 5 6 6 6 7 7 6 5 5 5 6 7 8
9 10 10 11 11 11 11 11 11 11 10 9 7 6 5 4 4 3 3 4 3 3 3 3 3 3 4 4 4 5 5 6 6 6 7 8 8 8 8 8 9 9 9 10 12 13 14 15 16 16 14 9 8 7 6 6 6 6 6 6 6 6 5 4 4 4 5 7 10
9 10 11 11 11 12 12 12 11 10 9 7 7 6 5 5 4 3 3 3 3 3 3 3 4 4 4 4 4 5 5 5 5 6 7 8 8 8 8 8 9 9 9 10 11 13 15 16 16 17 15 9 8 7 6 5 6 6 6 6 6 5 5 5 4 4 5 6 9
9 10 11 11 11 11 11 11 10 8 7 6 6 6 5 4 3 3 3 2 2 3 3 3 3 4 3 3 3 4 5 6 6 6 6 6 7 7 8 7 9 9 9 9 11 13 15 16 17 18 16 10 8 6 5 5 5 6 7 7 6 6 5 5 4 4 5 6 6
Wind_Direction
147 149 149 148 149 148 148 148 152 155 158 158 160 162 162 160 159 157 157 156 160 165 168 169 164 163 165 169 161 152 142 132 125 121 121 123 126 127 125 119 113 110 110 109 110 113 117 120 115 110 104 102 100 95 90 90 113 118 117 115 120 121 118 113 114 115 115 117 128
149 148 146 145 146 146 147 150 157 162 165 166 166 167 168 166 161 159 161 166 166 163 160 160 159 160 162 166 158 147 137 130 125 120 117 116 114 113 110 108 101 102 107 116 122 128 132 130 123 118 114 109 102 97 95 99 118 117 115 115 121 119 115 113 120 125 129 134 147
151 150 149 151 154 156 157 160 165 169 172 173 173 174 174 172 161 157 159 163 157 151 149 153 158 160 159 157 149 139 132 129 125 121 116 110 103 98 96 99 96 96 99 113 126 134 137 134 128 126 125 123 115 113 116 130 128 120 117 121 123 120 117 121 133 138 141 144 157
155 155 157 161 163 164 165 166 169 172 174 175 178 180 178 169 152 146 145 145 145 146 149 152 156 156 152 144 136 128 122 121 121 119 116 110 103 98 97 100 102 103 105 114 125 131 132 129 126 126 128 128 126 128 133 143 131 121 118 127 125 124 128 135 146 150 148 152 165
163 165 166 168 170 169 169 168 169 171 173 173 175 176 170 149 137 134 136 141 148 151 150 147 146 143 138 133 130 123 116 111 114 116 117 113 109 105 102 103 109 112 116 120 126 128 126 121 120 121 125 128 129 135 141 144 132 123 115 114 118 128 137 144 154 154 151 150 165
171 172 172 172 171 170 168 169 169 169 169 167 167 164 157 145 140 140 143 147 148 144 139 135 132 129 126 127 126 122 117 110 112 115 119 119 118 113 108 108 110 113 117 123 127 128 127 123 121 123 125 125 124 132 139 138 131 126 122 120 128 131 137 151 158 154 145 141 150
173 173 173 173 172 170 167 167 167 166 164 163 163 160 154 148 145 144 144 142 138 135 133 132 131 131 132 133 131 127 122 119 117 119 122 126 125 122 118 116 110 110 117 127 131 133 135 134 134 135 136 133 131 132 135 133 129 129 131 143 156 147 137 158 158 149 145 149 155
173 173 173 172 172 169 166 164 163 163 164 165 164 158 152 147 144 141 138 134 135 137 138 136 138 139 141 142 140 136 131 127 127 128 129 131 129 127 124 120 114 114 121 129 136 142 145 145 143 146 148 145 142 144 146 139 133 134 140 155 167 166 143 157 154 154 157 159 161
173 173 172 170 170 168 164 161 160 161 162 163 160 154 149 144 142 139 138 138 140 140 139 138 141 142 143 144 144 143 140 138 139 139 138 135 132 132 131 128 125 125 128 130 138 142 145 143 142 145 148 149 149 153 155 147 139 141 147 159 169 180 196 139 153 166 169 167 166
171 170 168 167 167 163 158 153 152 151 150 148 147 145 142 140 140 140 141 141 138 138 139 141 141 143 144 147 148 148 148 146 146 145 144 140 138 140 143 144 142 142 144 145 141 139 137 135 134 138 144 145 149 154 157 154 147 148 153 163 167 178 196 232 204 189 184 179 174
168 166 164 162 158 152 145 141 137 134 132 132 134 135 136 137 137 138 137 135 136 140 144 144 144 146 150 152 153 153 152 150 148 146 145 145 146 148 151 152 150 151 153 157 150 142 137 135 137 140 144 148 151 155 158 158 152 152 156 168 168 176 189 214 214 204 193 183 174
161 158 154 149 145 140 136 133 129 125 123 125 129 131 134 135 134 132 131 133 140 145 149 148 149 151 154 155 156 155 153 151 148 147 147 149 151 153 153 154 153 154 157 160 156 149 145 146 147 150 153 160 162 163 163 162 157 157 161 172 176 184 193 205 209 204 190 169 163
151 146 141 137 135 134 132 129 127 125 126 128 131 133 134 132 131 131 134 140 145 148 151 153 154 155 155 156 157 157 156 153 151 150 151 154 155 155 155 157 157 158 160 163 160 156 154 155 156 157 161 169 175 176 173 168 164 164 167 176 184 193 199 202 199 190 172 152 157
141 139 138 137 136 135 133 130 130 130 132 134 137 136 134 132 134 138 142 147 150 152 153 157 160 160 159 158 158 158 158 155 153 152 153 156 158 159 161 164 164 164 164 165 164 162 161 163 165 165 167 172 181 185 184 178 174 172 173 177 186 194 200 198 188 175 164 161 173
140 141 142 141 142 140 138 137 137 139 140 142 143 141 138 139 143 146 149 151 153 154 156 160 166 166 162 158 158 157 156 154 153 154 156 159 164 166 168 170 170 169 168 167 169 170 170 170 172 172 173 175 182 186 189 189 187 183 181 181 185 189 192 190 180 173 169 169 177
146 148 148 148 147 146 145 146 146 147 148 149 148 146 146 148 151 153 153 154 155 157 160 165 168 167 163 159 156 155 154 155 156 157 160 165 172 176 178 178 178 175 172 170 174 179 183 180 178 177 177 178 181 185 189 193 195 193 189 186 184 183 182 181 177 175 174 171 177
152 153 154 154 153 152 152 153 153 154 155 155 153 153 154 155 156 158 158 157 157 160 166 171 168 164 161 160 156 155 155 158 162 165 169 174 179 184 186 188 185 180 175 172 177 183 189 192 186 183 181 180 182 184 188 192 195 195 193 189 184 181 179 177 176 175 174 173 184
158 159 160 159 158 158 158 158 159 159 159 158 158 158 158 158 160 161 161 160 160 163 168 172 170 165 162 163 164 164 164 166 172 177 181 183 184 186 189 193 189 183 178 176 179 183 188 190 189 187 184 183 183 184 186 188 192 193 192 188 186 183 180 177 175 173 173 177 190
163 164 165 165 164 163 163 163 163 163 162 160 159 159 159 161 162 162 162 164 164 165 166 169 170 169 168 167 170 173 176 176 180 185 189 190 188 189 191 193 189 184 182 182 184 185 185 185 184 184 184 184 184 183 184 185 189 190 189 186 185 185 183 179 176 175 175 179 189
167 168 169 169 167 165 165 165 164 164 162 160 159 159 161 164 164 164 166 170 169 167 166 166 169 172 174 172 174 180 185 187 187 190 193 193 191 192 193 192 188 186 186 187 187 186 184 182 182 182 183 183 183 182 183 184 186 187 187 185 185 186 185 179 176 176 179 184 190
170 170 170 170 168 167 165 164 163 162 162 162 162 163 164 166 169 171 172 172 170 168 168 168 171 173 176 177 180 186 193 196 193 195 196 195 195 196 195 189 185 184 186 189 190 187 184 183 182 183 183 184 184 183 182 181 183 185 186 186 188 188 184 177 176 180 185 192 196
170 169 169 170 171 170 167 163 161 161 163 165 165 166 167 171 175 177 175 170 168 169 172 173 174 176 178 181 186 191 194 196 198 199 199 197 199 199 194 183 180 182 187 192 192 189 187 185 185 184 184 185 187 186 183 180 181 182 184 189 192 193 189 182 183 187 193 198 202
167 166 167 171 173 172 169 164 161 161 162 165 167 168 171 175 179 178 174 169 170 173 176 176 178 180 182 185 189 191 192 193 199 203 205 202 204 199 191 180 182 186 192 196 193 188 186 187 188 187 186 186 188 187 185 182 180 180 182 188 195 199 199 194 194 197 202 206 208
167 168 169 172 173 171 168 164 162 162 164 166 168 171 174 179 180 178 174 172 174 177 178 180 182 185 187 189 191 190 189 191 198 205 209 208 204 198 191 187 191 197 201 201 194 189 186 184 188 190 191 191 189 188 186 184 182 180 181 186 193 200 205 204 203 205 209 212 214
171 172 173 173 172 169 167 166 167 169 170 171 170 172 175 179 180 178 177 175 177 178 180 182 185 188 191 193 193 192 191 192 197 202 205 208 205 200 195 193 201 207 209 207 202 197 193 189 187 188 190 192 189 186 185 186 185 183 181 184 188 194 202 213 215 213 212 212 214
176 177 176 174 171 168 168 171 173 175 175 173 171 172 175 179 179 178 177 176 178 180 183 185 189 192 193 194 194 195 197 199 201 202 204 206 205 203 202 203 208 212 214 212 208 204 201 198 193 187 183 184 183 182 184 192 191 186 182 182 184 187 194 209 219 221 217 213 212
179 179 178 174 171 171 173 175 176 176 176 175 174 175 176 177 176 175 175 175 179 182 186 191 194 194 192 190 192 198 204 209 208 208 208 207 205 205 206 210 212 215 216 215 212 209 206 204 198 191 183 179 180 182 186 192 192 188 184 182 183 185 190 200 210 216 218 220 219
179 179 176 173 174 176 176 175 175 177 178 177 176 176 175 173 171 171 173 176 180 184 190 198 198 192 186 186 196 204 209 212 212 213 213 212 209 208 209 212 214 217 218 217 214 212 210 208 203 196 188 181 182 184 185 186 187 186 184 182 184 188 192 199 202 206 212 225 232
177 175 174 175 178 179 178 176 177 179 178 176 175 172 170 167 167 170 173 178 182 188 195 201 193 183 182 195 206 211 213 215 215 215 215 216 217 217 217 217 219 222 223 220 217 215 213 211 207 200 193 186 185 186 187 185 182 182 182 184 186 190 195 199 198 200 206 218 233
174 174 175 178 180 180 179 179 179 178 175 172 169 166 164 164 168 172 177 182 188 194 197 191 179 181 192 204 209 212 215 219 217 214 213 216 220 224 225 223 224 226 226 223 220 217 215 213 209 204 197 190 187 185 185 183 179 179 182 186 189 192 195 196 196 199 203 209 219
175 175 177 180 181 181 181 180 177 173 169 166 163 162 163 167 172 178 182 187 192 193 188 173 174 185 198 206 207 211 216 220 217 214 213 215 220 224 227 228 228 230 230 226 223 220 218 215 211 205 199 191 187 185 184 182 180 180 182 186 190 192 193 193 195 198 201 202 206
176 178 179 181 183 183 181 176 171 166 162 161 162 164 168 172 177 182 186 189 189 184 175 168 179 191 202 208 208 213 218 222 220 218 217 217 221 225 228 230 231 233 233 230 226 223 220 217 212 206 200 192 188 185 183 181 181 182 184 186 188 190 190 191 194 198 199 200 201
179 180 182 183 183 181 175 168 163 160 159 161 165 169 172 176 180 184 187 189 184 179 176 178 187 196 203 207 209 216 222 224 224 223 222 220 223 226 230 235 236 237 235 232 228 225 222 218 212 206 200 192 187 184 182 181 181 183 186 189 190 190 190 190 193 197 199 200 200
181 182 183 183 179 173 166 160 158 157 159 164 170 173 176 178 182 186 188 186 181 177 177 181 188 194 199 200 205 213 222 227 227 226 225 225 226 229 234 239 242 240 235 232 229 226 222 219 213 206 199 191 185 180 179 181 183 186 190 193 194 194 193 194 197 198 199 199 199
181 181 181 179 172 164 159 156 157 159 163 169 174 178 180 181 185 187 186 178 171 170 173 178 181 186 192 199 205 215 224 232 232 230 228 225 225 230 237 243 247 245 239 233 230 226 223 219 213 205 197 188 181 177 179 183 186 190 193 195 198 200 201 202 203 203 201 198 197
179 178 175 170 163 159 157 158 160 164 169 174 178 181 183 186 186 183 176 162 159 162 169 172 170 180 196 214 218 223 227 231 234 233 230 224 222 229 238 246 251 251 245 237 231 227 223 218 211 202 193 183 177 177 183 188 191 193 194 197 203 206 207 206 207 206 204 200 199
176 173 168 163 160 159 161 162 165 170 176 180 181 182 183 184 181 172 158 147 155 166 175 173 179 195 212 223 229 231 230 229 232 234 234 228 222 227 237 246 253 253 248 239 232 227 223 218 209 199 190 179 176 181 187 193 195 196 198 203 210 212 211 208 207 206 206 205 205
171 166 163 160 161 162 165 167 171 176 180 182 182 180 178 175 171 162 151 148 160 172 181 184 197 212 222 227 232 235 235 231 228 230 232 232 227 227 233 243 251 252 248 239 231 226 222 216 207 198 189 180 180 184 189 194 198 201 204 209 216 218 217 212 207 207 210 213 214
164 162 161 162 164 167 169 173 177 180 181 179 176 171 167 166 166 160 153 152 158 166 175 188 208 220 225 226 232 238 241 236 228 226 228 234 232 230 232 239 248 251 248 238 229 224 220 215 207 198 191 184 184 186 190 193 198 203 208 213 220 225 226 221 212 212 220 225 226
161 162 164 167 169 172 174 178 180 180 178 172 168 165 164 165 160 151 143 144 149 157 169 190 214 224 228 224 229 238 245 247 238 230 229 234 237 237 236 237 246 250 249 239 228 222 218 214 207 200 194 188 187 188 189 190 196 204 211 217 221 227 231 229 219 218 225 235 234
163 166 169 172 174 175 176 178 178 175 169 164 164 162 159 152 141 133 132 137 144 154 169 194 219 229 231 224 225 236 247 256 253 245 237 236 241 242 240 238 244 248 248 240 229 222 218 214 209 202 197 190 188 187 186 183 194 206 215 220 220 223 228 232 228 227 229 234 236